User: anonymous   Login
Location: Unspecified
(33.6682°S, 0.0000°E)
Time: 12:58:00
(UTC+00:00)
Language:

Vanguard 2 Rocket - Orbit

View from above orbital plane
View from above orbital plane
View from above satellite
View from above satellite

Ground track
Ground track

The orbit data is extracted from the following two-line orbital elements,

1    12U 59001B   19170.44218354 +.00000084 +00000-0 +38881-4 0  9991
2    12 032.9032 184.5370 1666029 322.1947 027.2296 11.44264645238277
Epoch (UTC): 19 June 2019 10:36:44
Eccentricity: 0.1666029
inclination: 32.9032°
perigee height: 554 km
apogee height: 3326 km
right ascension of ascending node: 184.5370°
argument of perigee: 322.1947°
revolutions per day: 11.44264645
mean anomaly at epoch: 27.2296°
orbit number at epoch: 23827

The dashed part of the orbit path shows where the satellite is in the earth's shadow,  

DLR